Time,TemperatureF,DewpointF,PressureIn,WindDirection,WindDirectionDegrees,WindSpeedMPH,WindSpeedGustMPH,Humidity,HourlyPrecipIn,Conditions,Clouds,dailyrainin,SoftwareType,DateUTC
2013-04-24 00:01:00,27.9,7.2,23.45,North,0,0.0,0.0,41,0.00,,---,0.00,VWS V14.00,2013-04-24 07:01:00,
2013-04-24 00:06:00,27.7,7.1,23.45,North,0,0.0,0.0,41,0.00,,---,0.00,VWS V14.00,2013-04-24 07:06:00,
2013-04-24 00:11:00,27.5,6.9,23.45,North,0,0.0,0.0,41,0.00,,---,0.00,VWS V14.00,2013-04-24 07:11:00,
2013-04-24 00:16:00,27.5,6.9,23.45,North,0,0.0,0.0,41,0.00,,---,0.00,VWS V14.00,2013-04-24 07:16:00,
2013-04-24 00:21:00,27.3,6.7,23.45,North,0,0.0,0.0,41,0.00,,---,0.00,VWS V14.00,2013-04-24 07:21:00,
2013-04-24 00:26:00,27.1,6.6,23.45,North,0,0.0,0.0,41,0.00,,---,0.00,VWS V14.00,2013-04-24 07:26:00,
2013-04-24 00:31:00,27.1,6.6,23.45,North,0,0.0,0.0,41,0.00,,---,0.00,VWS V14.00,2013-04-24 07:31:00,
2013-04-24 00:36:00,27.0,6.4,23.45,North,0,0.0,0.0,41,0.00,,---,0.00,VWS V14.00,2013-04-24 07:36:00,
2013-04-24 00:41:00,27.0,6.4,23.45,North,0,0.0,0.0,41,0.00,,---,0.00,VWS V14.00,2013-04-24 07:41:00,
2013-04-24 00:46:00,26.8,6.2,23.45,North,0,0.0,0.0,41,0.00,,---,0.00,VWS V14.00,2013-04-24 07:46:00,
2013-04-24 00:51:00,26.8,6.2,23.45,North,0,0.0,0.0,41,0.00,,---,0.00,VWS V14.00,2013-04-24 07:51:00,
2013-04-24 00:56:00,26.6,6.6,23.45,North,0,0.0,0.0,42,0.00,,---,0.00,VWS V14.00,2013-04-24 07:56:00,
2013-04-24 01:01:00,26.4,6.4,23.45,North,0,0.0,0.0,42,0.00,,---,0.00,VWS V14.00,2013-04-24 08:01:00,
2013-04-24 01:06:00,26.2,6.3,23.45,North,0,0.0,0.0,42,0.00,,---,0.00,VWS V14.00,2013-04-24 08:06:00,
2013-04-24 01:11:00,26.1,6.1,23.45,North,0,0.0,0.0,42,0.00,,---,0.00,VWS V14.00,2013-04-24 08:11:00,
2013-04-24 01:16:00,26.1,6.1,23.45,North,0,0.0,0.0,42,0.00,,---,0.00,VWS V14.00,2013-04-24 08:16:00,
2013-04-24 01:21:00,25.9,6.0,23.45,North,0,0.0,0.0,42,0.00,,---,0.00,VWS V14.00,2013-04-24 08:21:00,
2013-04-24 01:26:00,25.9,6.0,23.45,North,0,0.0,0.0,42,0.00,,---,0.00,VWS V14.00,2013-04-24 08:26:00,
2013-04-24 01:32:00,25.7,5.8,23.45,North,0,0.0,0.0,42,0.00,,---,0.00,VWS V14.00,2013-04-24 08:32:00,
2013-04-24 01:37:00,25.5,5.6,23.45,North,0,0.0,0.0,42,0.00,,---,0.00,VWS V14.00,2013-04-24 08:37:00,
2013-04-24 01:42:00,25.5,5.6,23.45,North,0,0.0,0.0,42,0.00,,---,0.00,VWS V14.00,2013-04-24 08:42:00,
2013-04-24 01:47:00,25.3,5.5,23.45,North,0,0.0,0.0,42,0.00,,---,0.00,VWS V14.00,2013-04-24 08:47:00,
2013-04-24 01:52:00,25.3,5.5,23.45,North,0,0.0,0.0,42,0.00,,---,0.00,VWS V14.00,2013-04-24 08:52:00,
2013-04-24 01:57:00,25.3,5.5,23.45,North,0,0.0,0.0,42,0.00,,---,0.00,VWS V14.00,2013-04-24 08:57:00,
2013-04-24 02:02:00,25.2,5.3,23.45,North,0,0.0,0.0,42,0.00,,---,0.00,VWS V14.00,2013-04-24 09:02:00,
2013-04-24 02:07:00,25.2,5.3,23.45,North,0,0.0,0.0,42,0.00,,---,0.00,VWS V14.00,2013-04-24 09:07:00,
2013-04-24 02:12:00,25.0,5.1,23.45,North,0,0.0,0.0,42,0.00,,---,0.00,VWS V14.00,2013-04-24 09:12:00,
2013-04-24 02:17:00,24.8,5.0,23.45,North,0,0.0,0.0,42,0.00,,---,0.00,VWS V14.00,2013-04-24 09:17:00,
2013-04-24 02:22:00,24.8,5.0,23.45,North,0,0.0,0.0,42,0.00,,---,0.00,VWS V14.00,2013-04-24 09:22:00,
2013-04-24 02:27:00,24.6,4.8,23.45,North,0,0.0,0.0,42,0.00,,---,0.00,VWS V14.00,2013-04-24 09:27:00,
2013-04-24 02:32:00,24.4,4.7,23.45,North,0,0.0,0.0,42,0.00,,---,0.00,VWS V14.00,2013-04-24 09:32:00,
2013-04-24 02:37:00,24.4,4.7,23.45,North,0,0.0,0.0,42,0.00,,---,0.00,VWS V14.00,2013-04-24 09:37:00,
2013-04-24 02:42:00,24.3,4.5,23.45,North,0,0.0,0.0,42,0.00,,---,0.00,VWS V14.00,2013-04-24 09:42:00,
2013-04-24 02:47:00,24.3,4.5,23.42,North,0,0.0,0.0,42,0.00,,---,0.00,VWS V14.00,2013-04-24 09:47:00,
2013-04-24 02:52:00,24.1,4.3,23.42,North,0,0.0,0.0,42,0.00,,---,0.00,VWS V14.00,2013-04-24 09:52:00,
2013-04-24 02:57:00,23.9,4.2,23.42,North,0,0.0,0.0,42,0.00,,---,0.00,VWS V14.00,2013-04-24 09:57:00,
2013-04-24 03:02:00,23.7,4.0,23.42,North,0,0.0,0.0,42,0.00,,---,0.00,VWS V14.00,2013-04-24 10:02:00,
2013-04-24 03:07:00,23.5,3.8,23.42,North,0,0.0,0.0,42,0.00,,---,0.00,VWS V14.00,2013-04-24 10:07:00,
2013-04-24 03:12:00,23.5,3.8,23.42,North,0,0.0,0.0,42,0.00,,---,0.00,VWS V14.00,2013-04-24 10:12:00,
2013-04-24 03:17:00,23.5,3.8,23.42,North,0,0.0,0.0,42,0.00,,---,0.00,VWS V14.00,2013-04-24 10:17:00,
2013-04-24 03:22:00,23.4,3.7,23.42,North,0,0.0,0.0,42,0.00,,---,0.00,VWS V14.00,2013-04-24 10:22:00,
2013-04-24 03:27:00,23.2,3.5,23.42,North,0,0.0,0.0,42,0.00,,---,0.00,VWS V14.00,2013-04-24 10:27:00,
2013-04-24 03:32:00,23.2,3.5,23.42,North,0,0.0,0.0,42,0.00,,---,0.00,VWS V14.00,2013-04-24 10:32:00,
2013-04-24 03:37:00,23.2,3.5,23.42,North,0,0.0,0.0,42,0.00,,---,0.00,VWS V14.00,2013-04-24 10:37:00,
2013-04-24 03:42:00,23.0,3.8,23.42,North,0,0.0,0.0,43,0.00,,---,0.00,VWS V14.00,2013-04-24 10:42:00,
2013-04-24 03:47:00,23.0,3.8,23.42,North,0,0.0,0.0,43,0.00,,---,0.00,VWS V14.00,2013-04-24 10:47:00,
2013-04-24 03:52:00,23.0,3.8,23.42,North,0,0.0,0.0,43,0.00,,---,0.00,VWS V14.00,2013-04-24 10:52:00,
2013-04-24 03:58:00,23.0,3.8,23.42,North,0,0.0,0.0,43,0.00,,---,0.00,VWS V14.00,2013-04-24 10:58:00,
2013-04-24 04:03:00,22.8,3.7,23.42,North,0,0.0,0.0,43,0.00,,---,0.00,VWS V14.00,2013-04-24 11:03:00,
2013-04-24 04:08:00,22.8,3.7,23.42,North,0,0.0,0.0,43,0.00,,---,0.00,VWS V14.00,2013-04-24 11:08:00,
2013-04-24 04:13:00,22.6,3.5,23.42,North,0,0.0,0.0,43,0.00,,---,0.00,VWS V14.00,2013-04-24 11:13:00,
2013-04-24 04:18:00,22.6,3.5,23.42,North,0,0.0,0.0,43,0.00,,---,0.00,VWS V14.00,2013-04-24 11:18:00,
2013-04-24 04:23:00,22.5,3.4,23.42,North,0,0.0,0.0,43,0.00,,---,0.00,VWS V14.00,2013-04-24 11:23:00,
2013-04-24 04:28:00,22.5,3.4,23.42,North,0,0.0,0.0,43,0.00,,---,0.00,VWS V14.00,2013-04-24 11:28:00,
2013-04-24 04:33:00,22.5,3.4,23.42,North,0,0.0,0.0,43,0.00,,---,0.00,VWS V14.00,2013-04-24 11:33:00,
2013-04-24 04:38:00,22.5,3.4,23.42,North,0,0.0,0.0,43,0.00,,---,0.00,VWS V14.00,2013-04-24 11:38:00,
2013-04-24 04:43:00,22.5,3.4,23.42,North,0,0.0,0.0,43,0.00,,---,0.00,VWS V14.00,2013-04-24 11:43:00,
2013-04-24 04:48:00,22.5,3.4,23.42,North,0,0.0,0.0,43,0.00,,---,0.00,VWS V14.00,2013-04-24 11:48:00,
2013-04-24 04:53:00,22.5,3.4,23.42,North,0,0.0,0.0,43,0.00,,---,0.00,VWS V14.00,2013-04-24 11:53:00,
2013-04-24 04:58:00,22.5,3.4,23.42,North,0,0.0,0.0,43,0.00,,---,0.00,VWS V14.00,2013-04-24 11:58:00,
2013-04-24 05:03:00,22.5,3.4,23.42,North,0,0.0,0.0,43,0.00,,---,0.00,VWS V14.00,2013-04-24 12:03:00,
2013-04-24 05:08:00,22.5,3.4,23.42,North,0,0.0,0.0,43,0.00,,---,0.00,VWS V14.00,2013-04-24 12:08:00,
2013-04-24 05:13:00,22.5,3.4,23.42,North,0,0.0,0.0,43,0.00,,---,0.00,VWS V14.00,2013-04-24 12:13:00,
2013-04-24 05:18:00,22.5,3.4,23.42,North,0,0.0,0.0,43,0.00,,---,0.00,VWS V14.00,2013-04-24 12:18:00,
2013-04-24 05:23:00,22.5,3.4,23.42,North,0,0.0,0.0,43,0.00,,---,0.00,VWS V14.00,2013-04-24 12:23:00,
2013-04-24 05:28:00,22.3,3.2,23.42,North,0,0.0,0.0,43,0.00,,---,0.00,VWS V14.00,2013-04-24 12:28:00,
2013-04-24 05:33:00,22.3,3.2,23.42,North,0,0.0,0.0,43,0.00,,---,0.00,VWS V14.00,2013-04-24 12:33:00,
2013-04-24 05:38:00,22.3,3.2,23.42,North,0,0.0,0.0,43,0.00,,---,0.00,VWS V14.00,2013-04-24 12:38:00,
2013-04-24 05:43:00,22.3,3.2,23.42,North,0,0.0,0.0,43,0.00,,---,0.00,VWS V14.00,2013-04-24 12:43:00,
2013-04-24 05:48:00,22.3,3.2,23.42,North,0,0.0,0.0,43,0.00,,---,0.00,VWS V14.00,2013-04-24 12:48:00,
2013-04-24 05:53:00,22.5,3.4,23.42,North,0,0.0,0.0,43,0.00,,---,0.00,VWS V14.00,2013-04-24 12:53:00,
2013-04-24 05:58:00,22.5,3.4,23.42,North,0,0.0,0.0,43,0.00,,---,0.00,VWS V14.00,2013-04-24 12:58:00,
2013-04-24 06:04:00,22.6,3.5,23.42,North,0,0.0,0.0,43,0.00,,---,0.00,VWS V14.00,2013-04-24 13:04:00,
2013-04-24 06:09:00,22.6,3.5,23.42,North,0,0.0,0.0,43,0.00,,---,0.00,VWS V14.00,2013-04-24 13:09:00,
2013-04-24 06:14:00,22.8,3.7,23.42,North,0,0.0,0.0,43,0.00,,---,0.00,VWS V14.00,2013-04-24 13:14:00,
2013-04-24 06:19:00,23.2,3.5,23.42,North,0,0.0,0.0,42,0.00,,---,0.00,VWS V14.00,2013-04-24 13:19:00,
2013-04-24 06:24:00,23.5,3.8,23.42,North,0,0.0,0.0,42,0.00,,---,0.00,VWS V14.00,2013-04-24 13:24:00,
2013-04-24 06:29:00,23.7,4.0,23.45,North,0,0.0,0.0,42,0.00,,---,0.00,VWS V14.00,2013-04-24 13:29:00,
2013-04-24 06:34:00,24.1,4.3,23.45,North,0,0.0,0.0,42,0.00,,---,0.00,VWS V14.00,2013-04-24 13:34:00,
2013-04-24 06:39:00,24.6,4.8,23.45,North,0,0.0,0.0,42,0.00,,---,0.00,VWS V14.00,2013-04-24 13:39:00,
2013-04-24 06:44:00,25.5,5.6,23.45,North,0,0.0,0.0,42,0.00,,---,0.00,VWS V14.00,2013-04-24 13:44:00,
2013-04-24 06:49:00,26.2,6.3,23.45,North,0,0.0,0.0,42,0.00,,---,0.00,VWS V14.00,2013-04-24 13:49:00,
2013-04-24 06:54:00,26.6,6.6,23.45,North,0,0.0,0.0,42,0.00,,---,0.00,VWS V14.00,2013-04-24 13:54:00,
2013-04-24 06:59:00,27.0,6.4,23.45,North,0,0.0,0.0,41,0.00,,---,0.00,VWS V14.00,2013-04-24 13:59:00,
2013-04-24 07:04:00,27.7,7.1,23.45,North,0,0.0,0.0,41,0.00,,---,0.00,VWS V14.00,2013-04-24 14:04:00,
2013-04-24 07:09:00,28.6,7.9,23.45,North,0,0.0,0.0,41,0.00,,---,0.00,VWS V14.00,2013-04-24 14:09:00,
2013-04-24 07:14:00,29.7,8.9,23.45,North,0,0.0,0.0,41,0.00,,---,0.00,VWS V14.00,2013-04-24 14:14:00,
2013-04-24 07:19:00,30.7,9.8,23.45,North,0,0.0,0.0,41,0.00,,---,0.00,VWS V14.00,2013-04-24 14:19:00,
2013-04-24 07:24:00,31.8,10.8,23.45,North,0,0.0,0.0,41,0.00,,---,0.00,VWS V14.00,2013-04-24 14:24:00,
2013-04-24 07:29:00,33.1,12.0,23.45,North,0,0.0,0.0,41,0.00,,---,0.00,VWS V14.00,2013-04-24 14:29:00,
2013-04-24 07:34:00,34.3,12.5,23.45,North,0,0.0,0.0,40,0.00,,---,0.00,VWS V14.00,2013-04-24 14:34:00,
2013-04-24 07:39:00,35.8,13.8,23.45,North,0,0.0,0.0,40,0.00,,---,0.00,VWS V14.00,2013-04-24 14:39:00,
2013-04-24 07:44:00,37.9,15.2,23.45,North,0,0.0,0.0,39,0.00,,---,0.00,VWS V14.00,2013-04-24 14:44:00,
2013-04-24 07:49:00,39.7,16.8,23.45,West,264,3.6,5.4,39,0.00,,---,0.00,VWS V14.00,2013-04-24 14:49:00,
2013-04-24 07:54:00,41.7,18.6,23.45,WSW,246,2.2,4.9,39,0.00,,---,0.00,VWS V14.00,2013-04-24 14:54:00,
2013-04-24 07:59:00,43.5,19.6,23.45,West,275,2.7,2.7,38,0.00,,---,0.00,VWS V14.00,2013-04-24 14:59:00,
2013-04-24 08:04:00,45.3,21.2,23.45,WSW,251,3.1,4.0,38,0.00,,---,0.00,VWS V14.00,2013-04-24 15:04:00,
2013-04-24 08:10:00,46.9,22.0,23.45,SSW,213,3.6,3.6,37,0.00,,---,0.00,VWS V14.00,2013-04-24 15:10:00,
2013-04-24 08:15:00,48.0,23.0,23.45,SSW,204,4.0,5.8,37,0.00,,---,0.00,VWS V14.00,2013-04-24 15:15:00,
2013-04-24 08:20:00,48.9,23.8,23.45,SW,221,3.1,5.4,37,0.00,,---,0.00,VWS V14.00,2013-04-24 15:20:00,
2013-04-24 08:25:00,50.0,24.8,23.45,SSW,198,2.7,2.7,37,0.00,,---,0.00,VWS V14.00,2013-04-24 15:25:00,
2013-04-24 08:30:00,50.7,25.4,23.45,WNW,303,4.0,5.8,37,0.00,,---,0.00,VWS V14.00,2013-04-24 15:30:00,
2013-04-24 08:35:00,51.6,26.2,23.45,West,269,5.4,5.4,37,0.00,,---,0.00,VWS V14.00,2013-04-24 15:35:00,
2013-04-24 08:40:00,52.2,26.0,23.45,WSW,248,2.7,3.1,36,0.00,,---,0.00,VWS V14.00,2013-04-24 15:40:00,
2013-04-24 08:45:00,53.1,26.8,23.45,SW,219,3.1,5.4,36,0.00,,---,0.00,VWS V14.00,2013-04-24 15:45:00,
2013-04-24 08:50:00,54.0,27.6,23.45,WSW,248,8.3,8.3,36,0.00,,---,0.00,VWS V14.00,2013-04-24 15:50:00,
2013-04-24 08:55:00,55.0,28.6,23.45,NW,317,5.4,8.7,36,0.00,,---,0.00,VWS V14.00,2013-04-24 15:55:00,
2013-04-24 09:00:00,55.9,28.7,23.45,South,186,6.3,6.3,35,0.00,,---,0.00,VWS V14.00,2013-04-24 16:00:00,
2013-04-24 09:05:00,56.7,29.3,23.45,SW,233,3.6,5.8,35,0.00,,---,0.00,VWS V14.00,2013-04-24 16:05:00,
2013-04-24 09:10:00,57.4,30.0,23.45,West,272,8.1,8.1,35,0.00,,---,0.00,VWS V14.00,2013-04-24 16:10:00,
2013-04-24 09:15:00,57.7,30.3,23.45,West,268,7.6,10.1,35,0.00,,---,0.00,VWS V14.00,2013-04-24 16:15:00,
2013-04-24 09:20:00,58.1,30.6,23.45,SSW,211,2.2,5.4,35,0.00,,---,0.00,VWS V14.00,2013-04-24 16:20:00,
2013-04-24 09:25:00,58.5,30.9,23.45,NW,307,5.8,12.8,35,0.00,,---,0.00,VWS V14.00,2013-04-24 16:25:00,
2013-04-24 09:30:00,58.5,30.9,23.45,WNW,303,5.8,8.7,35,0.00,,---,0.00,VWS V14.00,2013-04-24 16:30:00,
2013-04-24 09:35:00,58.8,31.2,23.45,SW,230,5.4,8.1,35,0.00,,---,0.00,VWS V14.00,2013-04-24 16:35:00,
2013-04-24 09:40:00,59.2,31.6,23.45,WNW,299,6.7,6.7,35,0.00,,---,0.00,VWS V14.00,2013-04-24 16:40:00,
2013-04-24 09:45:00,59.9,32.2,23.45,West,270,7.6,8.7,35,0.00,,---,0.00,VWS V14.00,2013-04-24 16:45:00,
2013-04-24 09:51:00,60.1,32.4,23.45,SW,234,5.8,8.3,35,0.00,,---,0.00,VWS V14.00,2013-04-24 16:51:00,
2013-04-24 09:56:00,60.4,32.7,23.45,WNW,298,8.3,8.3,35,0.00,,---,0.00,VWS V14.00,2013-04-24 16:56:00,
2013-04-24 10:01:00,60.4,32.7,23.45,NW,304,3.1,3.6,35,0.00,,---,0.00,VWS V14.00,2013-04-24 17:01:00,
2013-04-24 10:06:00,60.8,32.3,23.45,South,191,6.3,8.1,34,0.00,,---,0.00,VWS V14.00,2013-04-24 17:06:00,
2013-04-24 10:11:00,61.7,33.1,23.45,West,267,5.8,6.3,34,0.00,,---,0.00,VWS V14.00,2013-04-24 17:11:00,
2013-04-24 10:16:00,62.2,33.5,23.45,SSW,197,4.0,5.8,34,0.00,,---,0.00,VWS V14.00,2013-04-24 17:16:00,
2013-04-24 10:21:00,63.0,34.2,23.45,SSW,194,3.6,10.5,34,0.00,,---,0.00,VWS V14.00,2013-04-24 17:21:00,
2013-04-24 10:26:00,63.7,34.8,23.45,South,170,0.0,5.8,34,0.00,,---,0.00,VWS V14.00,2013-04-24 17:26:00,
2013-04-24 10:31:00,64.4,34.7,23.45,SW,222,4.0,5.4,33,0.00,,---,0.00,VWS V14.00,2013-04-24 17:31:00,
2013-04-24 10:36:00,65.1,35.3,23.45,SSW,196,3.1,4.0,33,0.00,,---,0.00,VWS V14.00,2013-04-24 17:36:00,
2013-04-24 10:41:00,65.7,35.8,23.45,SW,229,4.9,5.4,33,0.00,,---,0.00,VWS V14.00,2013-04-24 17:41:00,
2013-04-24 10:46:00,65.8,36.0,23.45,South,182,5.4,5.4,33,0.00,,---,0.00,VWS V14.00,2013-04-24 17:46:00,
2013-04-24 10:51:00,66.0,36.1,23.45,SSW,201,4.0,7.6,33,0.00,,---,0.00,VWS V14.00,2013-04-24 17:51:00,
2013-04-24 10:56:00,66.2,36.3,23.45,WNW,290,5.8,5.8,33,0.00,,---,0.00,VWS V14.00,2013-04-24 17:56:00,
2013-04-24 11:01:00,66.2,36.3,23.45,SE,141,3.1,3.1,33,0.00,,---,0.00,VWS V14.00,2013-04-24 18:01:00,
2013-04-24 11:06:00,66.4,36.4,23.45,SSW,194,4.0,4.0,33,0.00,,---,0.00,VWS V14.00,2013-04-24 18:06:00,
2013-04-24 11:11:00,66.9,36.9,23.45,SW,220,6.3,7.6,33,0.00,,---,0.00,VWS V14.00,2013-04-24 18:11:00,
2013-04-24 11:16:00,66.9,36.9,23.45,SW,221,2.2,3.1,33,0.00,,---,0.00,VWS V14.00,2013-04-24 18:16:00,
2013-04-24 11:21:00,68.0,37.8,23.45,WNW,289,3.6,3.6,33,0.00,,---,0.00,VWS V14.00,2013-04-24 18:21:00,
2013-04-24 11:26:00,68.4,38.2,23.45,South,174,4.0,4.9,33,0.00,,---,0.00,VWS V14.00,2013-04-24 18:26:00,
2013-04-24 11:31:00,68.4,38.2,23.45,South,180,4.0,4.0,33,0.00,,---,0.00,VWS V14.00,2013-04-24 18:31:00,
2013-04-24 11:36:00,68.7,38.5,23.45,SSW,212,0.0,5.8,33,0.00,,---,0.00,VWS V14.00,2013-04-24 18:36:00,
2013-04-24 11:41:00,68.5,38.3,23.45,SW,225,4.9,5.4,33,0.00,,---,0.00,VWS V14.00,2013-04-24 18:41:00,
2013-04-24 11:46:00,68.4,38.2,23.45,SSW,204,3.1,5.4,33,0.00,,---,0.00,VWS V14.00,2013-04-24 18:46:00,
2013-04-24 11:51:00,68.5,38.3,23.45,South,188,5.4,5.8,33,0.00,,---,0.00,VWS V14.00,2013-04-24 18:51:00,
2013-04-24 11:56:00,68.9,38.6,23.45,South,189,4.9,7.6,33,0.00,,---,0.00,VWS V14.00,2013-04-24 18:56:00,
2013-04-24 12:02:00,69.3,39.0,23.45,SSW,207,3.6,5.8,33,0.00,,---,0.00,VWS V14.00,2013-04-24 19:02:00,
2013-04-24 12:07:00,69.6,39.3,23.45,SSW,213,2.2,3.6,33,0.00,,---,0.00,VWS V14.00,2013-04-24 19:07:00,
2013-04-24 12:12:00,69.6,39.3,23.45,WSW,241,3.1,5.4,33,0.00,,---,0.00,VWS V14.00,2013-04-24 19:12:00,
2013-04-24 12:17:00,69.4,39.1,23.45,WSW,241,3.6,3.6,33,0.00,,---,0.00,VWS V14.00,2013-04-24 19:17:00,
2013-04-24 12:22:00,70.0,38.8,23.45,West,261,4.0,5.4,32,0.00,,---,0.00,VWS V14.00,2013-04-24 19:22:00,
2013-04-24 12:27:00,70.0,38.8,23.45,South,189,5.8,9.2,32,0.00,,---,0.00,VWS V14.00,2013-04-24 19:27:00,
2013-04-24 12:32:00,70.0,38.8,23.45,SE,145,6.7,8.1,32,0.00,,---,0.00,VWS V14.00,2013-04-24 19:32:00,
2013-04-24 12:37:00,69.8,38.6,23.45,SW,230,4.0,8.7,32,0.00,,---,0.00,VWS V14.00,2013-04-24 19:37:00,
2013-04-24 12:42:00,70.3,39.1,23.45,SE,133,3.6,8.3,32,0.00,,---,0.00,VWS V14.00,2013-04-24 19:42:00,
2013-04-24 12:47:00,70.5,39.3,23.45,SSE,162,4.0,4.0,32,0.00,,---,0.00,VWS V14.00,2013-04-24 19:47:00,
2013-04-24 12:52:00,70.5,39.3,23.45,SW,224,7.6,7.6,32,0.00,,---,0.00,VWS V14.00,2013-04-24 19:52:00,
2013-04-24 12:57:00,70.9,39.6,23.45,SW,229,3.6,6.7,32,0.00,,---,0.00,VWS V14.00,2013-04-24 19:57:00,
2013-04-24 13:02:00,70.7,39.4,23.45,WNW,284,5.4,5.4,32,0.00,,---,0.00,VWS V14.00,2013-04-24 20:02:00,
2013-04-24 13:07:00,70.2,39.0,23.45,WNW,283,3.6,5.8,32,0.00,,---,0.00,VWS V14.00,2013-04-24 20:07:00,
2013-04-24 13:12:00,70.3,39.1,23.45,WSW,240,3.6,8.1,32,0.00,,---,0.00,VWS V14.00,2013-04-24 20:12:00,
2013-04-24 13:17:00,70.3,39.1,23.45,South,186,4.0,5.4,32,0.00,,---,0.00,VWS V14.00,2013-04-24 20:17:00,
2013-04-24 13:22:00,70.5,39.3,23.45,SSW,198,5.8,5.8,32,0.00,,---,0.00,VWS V14.00,2013-04-24 20:22:00,
2013-04-24 13:27:00,71.1,39.7,23.45,SE,133,6.7,6.7,32,0.00,,---,0.00,VWS V14.00,2013-04-24 20:27:00,
2013-04-24 13:32:00,71.2,39.9,23.45,WSW,245,3.6,6.3,32,0.00,,---,0.00,VWS V14.00,2013-04-24 20:32:00,
2013-04-24 13:37:00,70.7,39.4,23.45,South,172,4.9,5.8,32,0.00,,---,0.00,VWS V14.00,2013-04-24 20:37:00,
2013-04-24 13:42:00,71.1,39.7,23.45,West,267,4.0,6.7,32,0.00,,---,0.00,VWS V14.00,2013-04-24 20:42:00,
2013-04-24 13:47:00,71.4,40.0,23.45,WSW,246,3.6,5.8,32,0.00,,---,0.00,VWS V14.00,2013-04-24 20:47:00,
2013-04-24 13:52:00,70.7,39.4,23.45,WNW,300,10.1,10.1,32,0.00,,---,0.00,VWS V14.00,2013-04-24 20:52:00,
2013-04-24 13:57:00,69.4,39.1,23.45,WNW,300,8.7,17.9,33,0.00,,---,0.00,VWS V14.00,2013-04-24 20:57:00,
2013-04-24 14:02:00,68.7,38.5,23.45,NNW,331,10.5,10.5,33,0.00,,---,0.00,VWS V14.00,2013-04-24 21:02:00,
2013-04-24 14:07:00,68.7,38.5,23.45,West,280,3.1,5.4,33,0.00,,---,0.00,VWS V14.00,2013-04-24 21:07:00,
2013-04-24 14:12:00,68.7,38.5,23.45,SSW,201,2.7,2.7,33,0.00,,---,0.00,VWS V14.00,2013-04-24 21:12:00,
2013-04-24 14:17:00,69.1,38.8,23.42,SSW,205,6.3,6.3,33,0.00,,---,0.00,VWS V14.00,2013-04-24 21:17:00,
2013-04-24 14:23:00,69.4,39.1,23.42,WNW,297,0.0,0.0,33,0.00,,---,0.00,VWS V14.00,2013-04-24 21:23:00,
2013-04-24 14:28:00,69.8,38.6,23.45,SW,229,3.1,5.4,32,0.00,,---,0.00,VWS V14.00,2013-04-24 21:28:00,
2013-04-24 14:33:00,70.3,39.1,23.45,West,262,2.7,2.7,32,0.00,,---,0.00,VWS V14.00,2013-04-24 21:33:00,
2013-04-24 14:38:00,70.3,39.1,23.45,NW,311,6.3,6.3,32,0.00,,---,0.00,VWS V14.00,2013-04-24 21:38:00,
2013-04-24 14:43:00,70.7,39.4,23.45,West,276,3.1,5.4,32,0.00,,---,0.00,VWS V14.00,2013-04-24 21:43:00,
2013-04-24 14:48:00,71.6,40.2,23.45,SSE,147,3.1,5.4,32,0.00,,---,0.00,VWS V14.00,2013-04-24 21:48:00,
2013-04-24 14:53:00,71.8,40.4,23.45,SW,236,5.4,5.4,32,0.00,,---,0.00,VWS V14.00,2013-04-24 21:53:00,
2013-04-24 14:58:00,72.1,40.7,23.45,South,190,4.0,4.0,32,0.00,,---,0.00,VWS V14.00,2013-04-24 21:58:00,
2013-04-24 15:03:00,72.1,40.7,23.45,SSW,203,3.1,4.5,32,0.00,,---,0.00,VWS V14.00,2013-04-24 22:03:00,
2013-04-24 15:08:00,71.2,39.9,23.45,NNE,17,2.7,2.7,32,0.00,,---,0.00,VWS V14.00,2013-04-24 22:08:00,
2013-04-24 15:13:00,71.1,39.7,23.42,WNW,292,2.7,3.1,32,0.00,,---,0.00,VWS V14.00,2013-04-24 22:13:00,
2013-04-24 15:18:00,71.2,39.9,23.42,SW,219,3.1,5.8,32,0.00,,---,0.00,VWS V14.00,2013-04-24 22:18:00,
2013-04-24 15:23:00,70.5,39.3,23.42,WNW,289,6.3,8.3,32,0.00,,---,0.00,VWS V14.00,2013-04-24 22:23:00,
2013-04-24 15:28:00,69.8,38.6,23.42,West,277,3.1,3.1,32,0.00,,---,0.00,VWS V14.00,2013-04-24 22:28:00,
2013-04-24 15:33:00,69.1,38.8,23.42,South,183,3.1,6.3,33,0.00,,---,0.00,VWS V14.00,2013-04-24 22:33:00,
2013-04-24 15:38:00,68.7,38.5,23.42,SE,131,3.1,3.1,33,0.00,,---,0.00,VWS V14.00,2013-04-24 22:38:00,
2013-04-24 15:43:00,68.9,38.6,23.42,NW,320,7.6,8.3,33,0.00,,---,0.00,VWS V14.00,2013-04-24 22:43:00,
2013-04-24 15:48:00,68.9,38.6,23.42,SSW,209,2.7,5.4,33,0.00,,---,0.00,VWS V14.00,2013-04-24 22:48:00,
2013-04-24 15:53:00,68.9,38.6,23.42,South,183,5.8,5.8,33,0.00,,---,0.00,VWS V14.00,2013-04-24 22:53:00,
2013-04-24 15:58:00,68.5,38.3,23.42,South,177,0.0,2.7,33,0.00,,---,0.00,VWS V14.00,2013-04-24 22:58:00,
2013-04-24 16:03:00,68.4,38.2,23.42,SSW,204,3.1,3.1,33,0.00,,---,0.00,VWS V14.00,2013-04-24 23:03:00,
2013-04-24 16:08:00,68.4,38.2,23.42,West,267,4.0,4.9,33,0.00,,---,0.00,VWS V14.00,2013-04-24 23:08:00,
2013-04-24 16:13:00,68.5,38.3,23.42,SSW,201,3.6,5.4,33,0.00,,---,0.00,VWS V14.00,2013-04-24 23:13:00,
2013-04-24 16:19:00,68.2,38.0,23.42,SSW,192,2.7,3.6,33,0.00,,---,0.00,VWS V14.00,2013-04-24 23:19:00,
2013-04-24 16:24:00,67.8,37.7,23.42,South,172,4.0,4.0,33,0.00,,---,0.00,VWS V14.00,2013-04-24 23:24:00,
2013-04-24 16:29:00,67.8,37.7,23.42,SSW,203,2.7,6.3,33,0.00,,---,0.00,VWS V14.00,2013-04-24 23:29:00,
2013-04-24 16:34:00,67.5,37.4,23.42,South,190,4.0,4.9,33,0.00,,---,0.00,VWS V14.00,2013-04-24 23:34:00,
2013-04-24 16:39:00,67.1,37.1,23.42,WSW,243,0.0,3.1,33,0.00,,---,0.00,VWS V14.00,2013-04-24 23:39:00,
2013-04-24 16:44:00,66.6,36.6,23.42,South,191,2.7,4.9,33,0.00,,---,0.00,VWS V14.00,2013-04-24 23:44:00,
2013-04-24 16:49:00,66.0,36.1,23.42,SSW,193,3.6,4.0,33,0.00,,---,0.00,VWS V14.00,2013-04-24 23:49:00,
2013-04-24 16:54:00,65.5,35.6,23.42,SW,236,3.1,3.1,33,0.00,,---,0.00,VWS V14.00,2013-04-24 23:54:00,
2013-04-24 16:59:00,65.1,35.3,23.42,SSW,194,4.9,4.9,33,0.00,,---,0.00,VWS V14.00,2013-04-24 23:59:00,
2013-04-24 17:04:00,64.9,35.2,23.42,South,185,3.6,3.6,33,0.00,,---,0.00,VWS V14.00,2013-04-25 00:04:00,
2013-04-24 17:09:00,64.9,35.2,23.42,SW,218,2.7,2.7,33,0.00,,---,0.00,VWS V14.00,2013-04-25 00:09:00,
2013-04-24 17:14:00,65.1,35.3,23.42,South,191,3.1,3.1,33,0.00,,---,0.00,VWS V14.00,2013-04-25 00:14:00,
2013-04-24 17:19:00,65.1,35.3,23.42,SSW,208,3.1,3.1,33,0.00,,---,0.00,VWS V14.00,2013-04-25 00:19:00,
2013-04-24 17:24:00,65.3,35.5,23.42,SSW,202,3.6,3.6,33,0.00,,---,0.00,VWS V14.00,2013-04-25 00:24:00,
2013-04-24 17:29:00,65.1,35.3,23.42,South,170,2.7,2.7,33,0.00,,---,0.00,VWS V14.00,2013-04-25 00:29:00,
2013-04-24 17:34:00,64.6,34.8,23.42,South,189,2.7,2.7,33,0.00,,---,0.00,VWS V14.00,2013-04-25 00:34:00,
2013-04-24 17:39:00,64.2,35.3,23.42,SSW,197,2.7,3.1,34,0.00,,---,0.00,VWS V14.00,2013-04-25 00:39:00,
2013-04-24 17:44:00,64.2,35.3,23.42,South,185,2.7,4.0,34,0.00,,---,0.00,VWS V14.00,2013-04-25 00:44:00,
2013-04-24 17:49:00,64.4,34.7,23.42,SSE,163,3.1,3.6,33,0.00,,---,0.00,VWS V14.00,2013-04-25 00:49:00,
2013-04-24 17:54:00,64.4,34.7,23.42,SSE,158,3.6,4.9,33,0.00,,---,0.00,VWS V14.00,2013-04-25 00:54:00,
2013-04-24 17:59:00,64.0,35.1,23.42,ESE,123,3.6,4.9,34,0.00,,---,0.00,VWS V14.00,2013-04-25 00:59:00,
2013-04-24 18:04:00,63.5,34.7,23.42,South,175,2.2,3.6,34,0.00,,---,0.00,VWS V14.00,2013-04-25 01:04:00,
2013-04-24 18:09:00,62.8,34.0,23.42,South,187,3.6,4.5,34,0.00,,---,0.00,VWS V14.00,2013-04-25 01:09:00,
2013-04-24 18:14:00,62.1,33.4,23.42,SSW,206,3.6,5.4,34,0.00,,---,0.00,VWS V14.00,2013-04-25 01:14:00,
2013-04-24 18:19:00,61.5,32.9,23.42,South,190,0.0,2.7,34,0.00,,---,0.00,VWS V14.00,2013-04-25 01:19:00,
2013-04-24 18:25:00,61.0,32.4,23.42,SW,235,3.1,3.1,34,0.00,,---,0.00,VWS V14.00,2013-04-25 01:25:00,
2013-04-24 18:30:00,60.6,32.8,23.42,SSW,212,0.0,0.0,35,0.00,,---,0.00,VWS V14.00,2013-04-25 01:30:00,
2013-04-24 18:35:00,60.1,32.4,23.42,SSW,209,0.0,2.7,35,0.00,,---,0.00,VWS V14.00,2013-04-25 01:35:00,
2013-04-24 18:40:00,59.5,31.9,23.42,South,188,4.0,4.0,35,0.00,,---,0.00,VWS V14.00,2013-04-25 01:40:00,
2013-04-24 18:45:00,59.0,31.4,23.45,SSW,208,3.1,3.6,35,0.00,,---,0.00,VWS V14.00,2013-04-25 01:45:00,
2013-04-24 18:50:00,58.3,30.8,23.45,SSW,206,0.0,0.0,35,0.00,,---,0.00,VWS V14.00,2013-04-25 01:50:00,
2013-04-24 18:55:00,57.7,30.3,23.45,SSW,205,3.1,3.1,35,0.00,,---,0.00,VWS V14.00,2013-04-25 01:55:00,
2013-04-24 19:00:00,57.2,29.8,23.45,SSW,205,0.0,0.0,35,0.00,,---,0.00,VWS V14.00,2013-04-25 02:00:00,
2013-04-24 19:05:00,56.7,29.3,23.45,SSW,205,0.0,0.0,35,0.00,,---,0.00,VWS V14.00,2013-04-25 02:05:00,
2013-04-24 19:10:00,56.3,29.0,23.45,SSW,205,0.0,0.0,35,0.00,,---,0.00,VWS V14.00,2013-04-25 02:10:00,
2013-04-24 19:15:00,55.8,28.5,23.45,SSW,205,0.0,0.0,35,0.00,,---,0.00,VWS V14.00,2013-04-25 02:15:00,
2013-04-24 19:20:00,55.0,28.6,23.45,SSW,205,0.0,0.0,36,0.00,,---,0.00,VWS V14.00,2013-04-25 02:20:00,
2013-04-24 19:25:00,54.7,28.3,23.45,SSW,205,0.0,0.0,36,0.00,,---,0.00,VWS V14.00,2013-04-25 02:25:00,
2013-04-24 19:30:00,54.3,28.0,23.45,SSW,205,0.0,0.0,36,0.00,,---,0.00,VWS V14.00,2013-04-25 02:30:00,
2013-04-24 19:35:00,53.6,27.3,23.45,SSW,205,0.0,0.0,36,0.00,,---,0.00,VWS V14.00,2013-04-25 02:35:00,
2013-04-24 19:40:00,53.1,26.8,23.45,SSW,205,0.0,0.0,36,0.00,,---,0.00,VWS V14.00,2013-04-25 02:40:00,
2013-04-24 19:45:00,52.5,26.4,23.45,SSW,205,0.0,0.0,36,0.00,,---,0.00,VWS V14.00,2013-04-25 02:45:00,
2013-04-24 19:50:00,51.8,25.7,23.45,SSW,205,0.0,0.0,36,0.00,,---,0.00,VWS V14.00,2013-04-25 02:50:00,
2013-04-24 19:55:00,51.4,26.0,23.45,SSW,205,0.0,0.0,37,0.00,,---,0.00,VWS V14.00,2013-04-25 02:55:00,
2013-04-24 20:00:00,51.3,25.9,23.45,SSW,205,0.0,0.0,37,0.00,,---,0.00,VWS V14.00,2013-04-25 03:00:00,
2013-04-24 20:05:00,51.1,25.7,23.45,SSW,205,0.0,0.0,37,0.00,,---,0.00,VWS V14.00,2013-04-25 03:05:00,
2013-04-24 20:10:00,50.9,25.6,23.45,SSW,205,0.0,0.0,37,0.00,,---,0.00,VWS V14.00,2013-04-25 03:10:00,
2013-04-24 20:16:00,50.9,25.6,23.45,SSW,205,0.0,0.0,37,0.00,,---,0.00,VWS V14.00,2013-04-25 03:16:00,
2013-04-24 20:21:00,50.7,25.4,23.45,SSW,205,0.0,0.0,37,0.00,,---,0.00,VWS V14.00,2013-04-25 03:21:00,
2013-04-24 20:26:00,50.4,25.1,23.45,SSW,205,0.0,0.0,37,0.00,,---,0.00,VWS V14.00,2013-04-25 03:26:00,
2013-04-24 20:31:00,50.2,24.9,23.45,SSW,205,0.0,0.0,37,0.00,,---,0.00,VWS V14.00,2013-04-25 03:31:00,
2013-04-24 20:36:00,49.6,24.5,23.45,SSW,205,0.0,0.0,37,0.00,,---,0.00,VWS V14.00,2013-04-25 03:36:00,
2013-04-24 20:41:00,49.3,24.1,23.45,SSW,205,0.0,0.0,37,0.00,,---,0.00,VWS V14.00,2013-04-25 03:41:00,
2013-04-24 20:46:00,48.7,23.6,23.45,SSW,205,0.0,0.0,37,0.00,,---,0.00,VWS V14.00,2013-04-25 03:46:00,
2013-04-24 20:51:00,48.2,23.2,23.45,SSW,205,0.0,0.0,37,0.00,,---,0.00,VWS V14.00,2013-04-25 03:51:00,
2013-04-24 20:56:00,47.8,22.9,23.45,SSW,205,0.0,0.0,37,0.00,,---,0.00,VWS V14.00,2013-04-25 03:56:00,
2013-04-24 21:01:00,47.8,22.9,23.45,SSW,205,0.0,0.0,37,0.00,,---,0.00,VWS V14.00,2013-04-25 04:01:00,
2013-04-24 21:02:00,47.8,22.9,23.45,SSW,205,0.0,0.0,37,0.00,,---,0.00,VWS V14.00,2013-04-25 04:02:00,
2013-04-24 21:04:00,47.8,22.9,23.45,SSW,205,0.0,0.0,37,0.00,,---,0.00,VWS V14.00,2013-04-25 04:04:00,
2013-04-24 21:09:00,47.8,22.9,23.45,SSW,205,0.0,0.0,37,0.00,,---,0.00,VWS V14.00,2013-04-25 04:09:00,
2013-04-24 21:14:00,47.7,22.7,23.45,SSW,205,0.0,0.0,37,0.00,,---,0.00,VWS V14.00,2013-04-25 04:14:00,
2013-04-24 21:19:00,47.5,22.5,23.45,SSW,205,0.0,0.0,37,0.00,,---,0.00,VWS V14.00,2013-04-25 04:19:00,
2013-04-24 21:24:00,47.5,22.5,23.45,SSW,205,0.0,0.0,37,0.00,,---,0.00,VWS V14.00,2013-04-25 04:24:00,
2013-04-24 21:29:00,47.3,22.4,23.48,SSW,205,0.0,0.0,37,0.00,,---,0.00,VWS V14.00,2013-04-25 04:29:00,
2013-04-24 21:34:00,47.3,22.4,23.48,SSW,205,0.0,0.0,37,0.00,,---,0.00,VWS V14.00,2013-04-25 04:34:00,
2013-04-24 21:39:00,47.3,22.4,23.48,SSW,205,0.0,0.0,37,0.00,,---,0.00,VWS V14.00,2013-04-25 04:39:00,
2013-04-24 21:44:00,47.3,22.4,23.48,SSW,205,0.0,0.0,37,0.00,,---,0.00,VWS V14.00,2013-04-25 04:44:00,
2013-04-24 21:49:00,46.9,22.0,23.48,SSW,205,0.0,0.0,37,0.00,,---,0.00,VWS V14.00,2013-04-25 04:49:00,
2013-04-24 21:54:00,46.8,21.9,23.48,SSW,205,0.0,0.0,37,0.00,,---,0.00,VWS V14.00,2013-04-25 04:54:00,
2013-04-24 21:59:00,46.6,21.7,23.45,SSW,205,0.0,0.0,37,0.00,,---,0.00,VWS V14.00,2013-04-25 04:59:00,
2013-04-24 22:04:00,46.2,22.0,23.45,SSW,205,0.0,0.0,38,0.00,,---,0.00,VWS V14.00,2013-04-25 05:04:00,
2013-04-24 22:09:00,45.9,21.7,23.45,SSW,205,0.0,0.0,38,0.00,,---,0.00,VWS V14.00,2013-04-25 05:09:00,
2013-04-24 22:14:00,45.3,21.2,23.45,SSW,205,0.0,0.0,38,0.00,,---,0.00,VWS V14.00,2013-04-25 05:14:00,
2013-04-24 22:19:00,44.8,20.7,23.45,SSW,205,0.0,0.0,38,0.00,,---,0.00,VWS V14.00,2013-04-25 05:19:00,
2013-04-24 22:25:00,44.1,20.1,23.45,SSW,205,0.0,0.0,38,0.00,,---,0.00,VWS V14.00,2013-04-25 05:25:00,
2013-04-24 22:30:00,43.5,19.6,23.45,SSW,205,0.0,0.0,38,0.00,,---,0.00,VWS V14.00,2013-04-25 05:30:00,
2013-04-24 22:35:00,43.0,19.1,23.45,SSW,205,0.0,0.0,38,0.00,,---,0.00,VWS V14.00,2013-04-25 05:35:00,
2013-04-24 22:40:00,42.4,19.2,23.45,SSW,205,0.0,0.0,39,0.00,,---,0.00,VWS V14.00,2013-04-25 05:40:00,
2013-04-24 22:45:00,42.1,18.9,23.45,SSW,205,0.0,0.0,39,0.00,,---,0.00,VWS V14.00,2013-04-25 05:45:00,
2013-04-24 22:50:00,41.5,18.4,23.45,SSW,205,0.0,0.0,39,0.00,,---,0.00,VWS V14.00,2013-04-25 05:50:00,
2013-04-24 22:55:00,41.2,18.1,23.45,SSW,205,0.0,0.0,39,0.00,,---,0.00,VWS V14.00,2013-04-25 05:55:00,
2013-04-24 23:00:00,40.8,17.8,23.45,SSW,205,0.0,0.0,39,0.00,,---,0.00,VWS V14.00,2013-04-25 06:00:00,
2013-04-24 23:05:00,40.5,17.5,23.45,SSW,205,0.0,0.0,39,0.00,,---,0.00,VWS V14.00,2013-04-25 06:05:00,
2013-04-24 23:10:00,40.3,17.3,23.45,SSW,205,0.0,0.0,39,0.00,,---,0.00,VWS V14.00,2013-04-25 06:10:00,
2013-04-24 23:15:00,39.9,17.0,23.45,SSW,205,0.0,0.0,39,0.00,,---,0.00,VWS V14.00,2013-04-25 06:15:00,
2013-04-24 23:20:00,39.7,16.8,23.45,SSW,205,0.0,0.0,39,0.00,,---,0.00,VWS V14.00,2013-04-25 06:20:00,
2013-04-24 23:25:00,39.6,16.7,23.45,SSW,205,0.0,0.0,39,0.00,,---,0.00,VWS V14.00,2013-04-25 06:25:00,
2013-04-24 23:30:00,39.2,16.3,23.45,SSW,205,0.0,0.0,39,0.00,,---,0.00,VWS V14.00,2013-04-25 06:30:00,
2013-04-24 23:35:00,38.8,16.0,23.45,SSW,205,0.0,0.0,39,0.00,,---,0.00,VWS V14.00,2013-04-25 06:35:00,
2013-04-24 23:40:00,38.7,15.9,23.45,SSW,205,0.0,0.0,39,0.00,,---,0.00,VWS V14.00,2013-04-25 06:40:00,
2013-04-24 23:45:00,38.5,15.7,23.45,SSW,205,0.0,0.0,39,0.00,,---,0.00,VWS V14.00,2013-04-25 06:45:00,
2013-04-24 23:50:00,38.1,15.4,23.45,SSW,205,0.0,0.0,39,0.00,,---,0.00,VWS V14.00,2013-04-25 06:50:00,
2013-04-24 23:55:00,37.8,15.0,23.45,SSW,205,0.0,0.0,39,0.00,,---,0.00,VWS V14.00,2013-04-25 06:55:00,